Weather History for Ocean City, MD

Change the Weather History Date:

Thursday, March 20, 2014

  Actual Average (KSBY) Record (KSBY)
Temperature  
Mean Temperature 52 °F 46 °F  
Max Temperature 61 °F 56 °F 82 °F (1948)
Min Temperature 43 °F 36 °F 18 °F (2006)
Degree Days  
Heating Degree Days 13 19  
Month to date heating degree days 439  
Since 1 July heating degree days 3744  
Cooling Degree Days 0 0  
Month to date cooling degree days 0  
Year to date cooling degree days 0  
Growing Degree Days 2 (Base 50)    
Moisture  
Dew Point 36 °F    
Average Humidity 66    
Maximum Humidity 93    
Minimum Humidity 25    
Precipitation  
Precipitation 0.00 in 0.15 in 1.25 in (1914)
Month to date precipitation 2.80  
Year to date precipitation 9.76  
Snow  
Snow 0.00 in 0.00 in 12.00 in (1914)
Month to date snowfall 0.7  
Since 1 July snowfall 9.0  
Snow Depth -    
Sea Level Pressure  
Sea Level Pressure 29.88 in    
Wind  
Wind Speed 12 mph (WNW)    
Max Wind Speed 17 mph    
Max Gust Speed 26 mph    
Visibility 9 miles    
Events      
T = Trace of Precipitation, MM = Missing Value Source: NWS Daily Summary

Daily Weather History Graph

Daily Weather History Graph

Search for Another Location

Airport:

Trip Planner

Search our weather history database for the weather conditions in past years. The results will help you decide how hot, cold, wet, or windy it might be!

Date:

Astronomy

Mar. 20, 2014 Rise Set
Actual Time 7:04 AM EDT 7:12 PM EDT
Civil Twilight 6:37 AM EDT 7:38 PM EDT
Nautical Twilight 6:06 AM EDT 8:09 PM EDT
Astronomical Twilight 5:35 AM EDT 8:41 PM EDT
Moon 11:26 PM EDT (3/20) 9:11 AM EDT (3/20)
Length of Visible Light 13h 01m
Length of Day
12h 08m
Waning Gibbous, 84% of the Moon is Illuminated
Mar 20
Waning Gibbous
Mar 23
Last Quarter
Mar 30
New
Apr 7
First Quarter
Apr 15
Full

Hourly Weather History & Observations

Time (EDT) Temp. Windchill Dew Point Humidity Pressure Visibility Wind Dir Wind Speed Gust Speed Precip Events Conditions
12:23 AM 46.9 °F - 45.0 °F 93% 29.85 in 10.0 mi West 12.7 mph - N/A   Mostly Cloudy
12:37 AM 46.9 °F - 44.1 °F 90% 29.85 in 10.0 mi West 12.7 mph 20.7 mph N/A   Overcast
12:53 AM 46.0 °F 39.0 °F 44.1 °F 93% 29.85 in 10.0 mi West 17.3 mph 24.2 mph N/A   Overcast
1:04 AM 46.0 °F 39.6 °F 43.0 °F 89% 29.85 in 8.0 mi WNW 15.0 mph 21.9 mph N/A   Overcast
1:26 AM 44.1 °F 36.5 °F 42.1 °F 93% 29.85 in 6.0 mi WNW 17.3 mph 24.2 mph N/A   Overcast
1:40 AM 44.1 °F 37.4 °F 42.1 °F 93% 29.85 in 9.0 mi West 13.8 mph - N/A   Overcast
1:53 AM 44.1 °F 38.1 °F 42.1 °F 93% 29.84 in 9.0 mi West 11.5 mph 21.9 mph N/A   Overcast
2:53 AM 45.0 °F 39.7 °F 42.1 °F 90% 29.82 in 10.0 mi West 10.4 mph 17.3 mph N/A   Overcast
3:53 AM 46.0 °F 39.9 °F 43.0 °F 89% 29.83 in 8.0 mi West 13.8 mph - N/A   Overcast
4:53 AM 46.0 °F 41.4 °F 43.0 °F 89% 29.83 in 9.0 mi West 9.2 mph - N/A   Overcast
5:53 AM 46.0 °F 40.2 °F 43.0 °F 89% 29.85 in 7.0 mi West 12.7 mph 18.4 mph N/A   Overcast
6:53 AM 46.0 °F 40.6 °F 43.0 °F 89% 29.86 in 8.0 mi West 11.5 mph - N/A   Overcast
7:53 AM 46.0 °F 41.9 °F 44.1 °F 93% 29.88 in 5.0 mi WNW 8.1 mph - N/A   Overcast
8:53 AM 46.9 °F - 43.0 °F 86% 29.89 in 7.0 mi WNW 10.4 mph 16.1 mph N/A   Scattered Clouds
9:53 AM 51.1 °F - 42.1 °F 71% 29.91 in 10.0 mi NNW 9.2 mph 17.3 mph N/A   Clear
10:53 AM 53.1 °F - 39.0 °F 59% 29.90 in 10.0 mi WNW 13.8 mph 23.0 mph N/A   Clear
11:53 AM 57.0 °F - 36.0 °F 45% 29.89 in 10.0 mi NW 15.0 mph 19.6 mph N/A   Clear
12:53 PM 57.9 °F - 37.0 °F 46% 29.88 in 10.0 mi NW 17.3 mph 24.2 mph N/A   Clear
1:53 PM 59.0 °F - 35.1 °F 41% 29.87 in 10.0 mi West 13.8 mph 20.7 mph N/A   Partly Cloudy
2:53 PM 60.1 °F - 33.1 °F 36% 29.86 in 10.0 mi West 16.1 mph 21.9 mph N/A   Clear
3:53 PM 60.1 °F - 30.9 °F 33% 29.85 in 10.0 mi West 15.0 mph 26.5 mph N/A   Clear
4:53 PM 61.0 °F - 30.0 °F 31% 29.86 in 10.0 mi West 13.8 mph 24.2 mph N/A   Scattered Clouds
5:53 PM 59.0 °F - 23.0 °F 25% 29.87 in 10.0 mi WNW 10.4 mph 23.0 mph N/A   Clear
6:53 PM 55.9 °F - 21.0 °F 26% 29.89 in 10.0 mi NW 10.4 mph 17.3 mph N/A   Clear
7:53 PM 52.0 °F - 23.0 °F 32% 29.92 in 10.0 mi WNW 3.5 mph - N/A   Clear
8:53 PM 43.0 °F - 28.0 °F 56% 29.94 in 10.0 mi Calm Calm - N/A   Clear
9:53 PM 46.9 °F - 27.0 °F 46% 29.96 in 10.0 mi WNW 3.5 mph - N/A   Clear
10:53 PM 46.9 °F - 24.1 °F 41% 29.99 in 10.0 mi NW 5.8 mph - N/A   Clear
11:53 PM 45.0 °F 42.6 °F 24.1 °F 44% 30.02 in 10.0 mi NNW 4.6 mph - N/A   Clear